Yatton Keynell, United Kingdom

12:56 AM BST on July 18, 2018 (GMT +0100)
Yatton Keynell

Weather History for 03740 - July, 1999

Change the Weather History Date:

Wednesday, July 28, 1999

  Actual Average Record
Temperature  
Mean Temperature 62 °F -  
Max Temperature 73 °F 68 °F - ()
Min Temperature 50 °F 53 °F - ()
Degree Days  
Heating Degree Days 4    
Growing Degree Days 12 (Base 50)    
Moisture  
Dew Point 48 °F    
Average Humidity 61    
Maximum Humidity 87    
Minimum Humidity 41    
Precipitation  
Precipitation 0.00 in 0.08 in - ()
Sea Level Pressure  
Sea Level Pressure 30.18 in    
Wind  
Wind Speed 11 mph ()    
Max Wind Speed 17 mph    
Max Gust Speed -    
Visibility 6.2 miles    
Events      
T = Trace of Precipitation, MM = Missing Value Source: Averaged Metar Reports

Daily Weather History Graph

Daily Weather History Graph

Search for Another Location

Airport or City:

Astronomy

Jul. 28, 1999 Rise Set
Actual Time 5:24 AM BST 9:02 PM BST
Civil Twilight 4:43 AM BST 9:44 PM BST
Nautical Twilight 3:46 AM BST 10:40 PM BST
Astronomical Twilight 2:18 AM BST 12:05 AM BST
Moon 9:05 PM BST (7/28) 5:16 AM BST (7/28)
Length of Visible Light 17h 01m
Length of Day
15h 38m
Full, 100% of the Moon is Illuminated
Jul 28
Full
Jul 28
Full
Aug 4
Last Quarter
Aug 11
New
Aug 19
First Quarter

Hourly Weather History & Observations

Time (BST) Temp. Dew Point Humidity Pressure Visibility Wind Dir Wind Speed Gust Speed Precip Events Conditions
12:50 AM 51.8 °F 46.4 °F 82% 30.21 in - NE 8.1 mph - N/A   Clear
1:50 AM 50.0 °F 46.4 °F 87% 30.21 in 6.2 mi NNE 6.9 mph - N/A   Mostly Cloudy
2:50 AM 51.8 °F 46.4 °F 82% 30.21 in 6.2 mi NE 11.5 mph - N/A   Partly Cloudy
3:50 AM 51.8 °F 46.4 °F 82% 30.21 in 6.2 mi NE 10.4 mph - N/A   Partly Cloudy
4:50 AM 51.8 °F 46.4 °F 82% 30.18 in 6.2 mi NE 11.5 mph - N/A   Partly Cloudy
5:50 AM 51.8 °F 46.4 °F 82% 30.18 in 6.2 mi NE 11.5 mph - N/A   Scattered Clouds
6:50 AM 55.4 °F 46.4 °F 72% 30.18 in - NE 13.8 mph - N/A   Clear
7:50 AM 57.2 °F 48.2 °F 72% 30.21 in 6.2 mi NE 12.7 mph - N/A   Mostly Cloudy
8:50 AM 59.0 °F 48.2 °F 67% 30.21 in 6.2 mi NE 17.3 mph - N/A   Mostly Cloudy
9:50 AM 62.6 °F 48.2 °F 59% 30.18 in 6.2 mi NE 17.3 mph - N/A   Mostly Cloudy
10:50 AM 64.4 °F 48.2 °F 56% 30.18 in 6.2 mi ENE 16.1 mph - N/A   Mostly Cloudy
11:50 AM 66.2 °F 48.2 °F 52% 30.18 in 6.2 mi ENE 16.1 mph - N/A   Mostly Cloudy
12:50 PM 69.8 °F 50.0 °F 49% 30.18 in 6.2 mi ENE 15.0 mph - N/A   Mostly Cloudy
1:50 PM 69.8 °F 48.2 °F 46% 30.18 in 6.2 mi ENE 15.0 mph - N/A   Mostly Cloudy
2:50 PM 73.4 °F 48.2 °F 41% 30.15 in 6.2 mi ENE 16.1 mph - N/A   Mostly Cloudy
3:50 PM 73.4 °F 48.2 °F 41% 30.15 in 6.2 mi ENE 12.7 mph - N/A   Mostly Cloudy
4:50 PM 73.4 °F 50.0 °F 44% 30.15 in - NE 15.0 mph - N/A   Clear
5:50 PM 73.4 °F 48.2 °F 41% 30.15 in - ENE 12.7 mph - N/A   Clear
6:50 PM 71.6 °F 46.4 °F 41% 30.15 in - ENE 12.7 mph - N/A   Clear
7:50 PM 69.8 °F 48.2 °F 46% 30.15 in - NE 10.4 mph - N/A   Clear
8:50 PM 68.0 °F 48.2 °F 49% 30.15 in - NE 8.1 mph - N/A   Clear
9:50 PM 64.4 °F 50.0 °F 59% 30.18 in - NE 12.7 mph - N/A   Clear
10:50 PM 60.8 °F 51.8 °F 72% 30.18 in - NE 13.8 mph - N/A   Clear
11:50 PM 59.0 °F 50.0 °F 72% 30.18 in - NE 12.7 mph - N/A   Clear